カタログに戻る

STARLINK-32864

運用中通信VLEO
NORAD 62862·PAYLOAD·🇺🇸 United States

打ち上げ Feb 1, 2025 から Vandenberg Space Force Base

Loading…

次のパス (今後24時間)

TLE

最新Source: CelesTrak SupGP

元期: Sep 15, 2026, 03:52 UTC

1 62862C 25022J   26258.16159722  .00051727  00000+0  15284-2 0  2582
2 62862  53.1590 326.4355 0001256  90.1572 236.2189 15.34363495    10

AllMySatでSTARLINK-32864をリアルタイム追跡

Download on the App Store